TimeAKST,TemperatureF,Dew PointF,Humidity,Sea Level PressureIn,VisibilityMPH,Wind Direction,Wind SpeedMPH,Gust SpeedMPH,PrecipitationIn,Events,Conditions,WindDirDegrees,DateUTC
12:05 AM,37.4,37.4,100,30.09,2.5,East,5.8,-,0.00,Rain,Light Rain,90,2013-01-30 09:05:00
12:29 AM,39.2,39.2,100,30.09,1.8,East,6.9,-,0.01,Rain,Light Rain,100,2013-01-30 09:29:00
12:42 AM,37.4,37.4,100,30.09,3.0,East,6.9,-,0.02,Rain,Light Rain,90,2013-01-30 09:42:00
12:53 AM,37.9,37.9,100,30.10,2.0,East,5.8,-,0.02,,Overcast,80,2013-01-30 09:53:00
1:08 AM,37.4,37.4,100,30.10,3.0,ESE,5.8,-,0.00,,Overcast,110,2013-01-30 10:08:00
1:22 AM,39.2,37.4,93,30.10,2.5,ESE,5.8,-,0.01,,Overcast,110,2013-01-30 10:22:00
1:33 AM,37.4,37.4,100,30.11,3.0,East,5.8,-,0.01,,Overcast,100,2013-01-30 10:33:00
1:41 AM,37.4,37.4,100,30.11,2.5,East,5.8,-,0.01,,Overcast,80,2013-01-30 10:41:00
1:53 AM,37.9,37.9,100,30.11,3.0,ESE,4.6,-,0.01,,Overcast,120,2013-01-30 10:53:00
2:13 AM,37.4,37.4,100,30.12,4.0,ESE,5.8,-,N/A,,Overcast,110,2013-01-30 11:13:00
3:08 AM,37.4,37.4,100,30.11,10.0,East,6.9,-,0.00,Rain,Light Rain,100,2013-01-30 12:08:00
3:53 AM,37.9,37.9,100,30.12,10.0,SE,6.9,-,0.00,,Overcast,130,2013-01-30 12:53:00
4:05 AM,37.4,37.4,100,30.11,10.0,SE,5.8,-,N/A,,Overcast,140,2013-01-30 13:05:00
4:53 AM,37.0,37.0,100,30.12,10.0,East,6.9,-,N/A,,Overcast,90,2013-01-30 13:53:00
5:53 AM,39.0,37.9,96,30.12,7.0,SE,4.6,-,0.00,Rain,Light Rain,140,2013-01-30 14:53:00
6:44 AM,37.4,37.4,100,30.12,7.0,ESE,5.8,-,0.00,,Overcast,110,2013-01-30 15:44:00
6:53 AM,37.9,37.0,97,30.12,7.0,East,4.6,-,0.00,,Overcast,90,2013-01-30 15:53:00
7:53 AM,37.9,37.9,100,30.11,10.0,ESE,6.9,-,N/A,,Overcast,120,2013-01-30 16:53:00
8:53 AM,39.0,37.9,96,30.11,10.0,Calm,Calm,-,N/A,,Overcast,0,2013-01-30 17:53:00
9:26 AM,37.4,37.4,100,30.11,10.0,Calm,Calm,-,N/A,,Overcast,0,2013-01-30 18:26:00
9:53 AM,37.9,37.9,100,30.11,10.0,Calm,Calm,-,N/A,,Overcast,0,2013-01-30 18:53:00
10:53 AM,39.0,39.0,100,30.11,10.0,Calm,Calm,-,N/A,,Overcast,0,2013-01-30 19:53:00
11:53 AM,39.9,39.9,100,30.09,10.0,Calm,Calm,-,N/A,,Overcast,0,2013-01-30 20:53:00
12:53 PM,39.9,39.9,100,30.07,9.0,Calm,Calm,-,N/A,,Overcast,0,2013-01-30 21:53:00
1:53 PM,41.0,39.0,93,30.04,9.0,Calm,Calm,-,N/A,,Overcast,0,2013-01-30 22:53:00
2:53 PM,39.9,39.9,100,30.01,9.0,Calm,Calm,-,0.00,Rain,Light Rain,0,2013-01-30 23:53:00
3:53 PM,39.9,39.9,100,29.98,9.0,Calm,Calm,-,0.00,,Smoke,0,2013-01-31 00:53:00
4:13 PM,39.2,39.2,100,29.97,10.0,Calm,Calm,-,N/A,,Smoke,0,2013-01-31 01:13:00
4:53 PM,39.0,39.0,100,29.95,10.0,NNW,3.5,-,N/A,,Smoke,330,2013-01-31 01:53:00
5:53 PM,39.0,37.9,96,29.92,10.0,NNW,8.1,-,0.01,,Overcast,340,2013-01-31 02:53:00
6:53 PM,39.0,37.9,96,29.89,10.0,NNW,6.9,-,0.00,Rain,Light Rain,340,2013-01-31 03:53:00
7:53 PM,39.0,37.9,96,29.88,10.0,NNW,9.2,-,0.00,Rain,Light Rain,330,2013-01-31 04:53:00
8:53 PM,39.0,37.0,93,29.85,10.0,NW,9.2,-,0.00,,Overcast,310,2013-01-31 05:53:00
9:53 PM,39.0,37.0,93,29.83,10.0,NNW,5.8,-,N/A,,Overcast,330,2013-01-31 06:53:00
10:53 PM,39.0,37.0,93,29.81,10.0,NNW,8.1,-,N/A,,Overcast,330,2013-01-31 07:53:00
11:53 PM,39.0,35.1,86,29.80,10.0,Calm,Calm,-,0.00,Rain,Light Rain,0,2013-01-31 08:53:00